Location: ????? ??????
(37.8317°N, 23.8750°E)
Time: 12:33:51
(UTC+00:00)

CZ-3B R/B - Pass Details

Date: 20 January 2021
Orbit: 279 x 17414 km, 54.8° (Epoch: 03 March)

Event Time Altitude Azimuth Distance (km) Brightness Sun altitude
Rises 17:03:08 0° 330° (NNW) 2,280 5.2 -17.3°
Reaches altitude 10° 17:04:41 10° 345° (NNW) 1,715 4.4 -17.6°
Maximum altitude 17:07:46 27° 49° (NE) 1,548 3.6 -18.2°
Enters shadow 17:07:56 27° 52° (NE) 1,584 3.6 -18.3°
